Regional Weather Roundup
Issued by NWS Cleveland, OH

Home | Current Version | Previous Version | Graphics & Text | Print | Product List | Glossary On
Versions: 1 2 3 4 5 6 7 8 9 10 11 12 13 14 15 16 17 18 19 20 21 22 23 24 25 26 27 28 29 30 31 32 33 34 35 36 37 38 39 40 41 42 43 44 45 46 47 48 49 50
000
ASUS41 KCLE 271710
RWRCLE
OHIO REGIONAL WEATHER ROUNDUP
NATIONAL WEATHER SERVICE CLEVELAND, OH
100 PM EDT WED JUL 27 2016

NOTE: "FAIR" INDICATES FEW OR NO CLOUDS BELOW 12,000 FEET WITH NO
SIGNIFICANT WEATHER AND/OR OBSTRUCTIONS TO VISIBILITY.

OHZ001>008-015>018-024>027-034-035-043-044-271800-
   NORTHWEST OHIO

CITY           SKY/WX    TMP DP  RH WIND       PRES   REMARKS
DEFIANCE       PTSUNNY   85  64  49 S6        30.02S
FINDLAY        SUNNY     88  57  34 SE8       30.01S
TOLEDO EXPRESS MOSUNNY   84  63  49 CALM      30.01S
TOLEDO EXEC    SUNNY     87  62  43 S5        30.01F
LIMA           SUNNY     85  63  47 CALM      30.02F
$$

OHZ009>014-019>023-028>033-038-089-271800-
   NORTHEAST OHIO

CITY           SKY/WX    TMP DP  RH WIND       PRES   REMARKS
CLE-HOPKINS    MOSUNNY   89  57  33 N6        30.03F
CLE-LAKEFRONT  SUNNY     84  66  54 NW7       30.00F
CUY CO. ARPT   MOSUNNY  N/A N/A N/A E8        30.03
LORAIN-ELYRIA  SUNNY     86  60  41 NE7       30.02F
ASHTABULA      SUNNY     84  61  45 CALM      30.03F
AKRON-CANTON   MOSUNNY   86  56  35 N6        30.03F
WOOSTER        SUNNY     85  57  38 N5        30.04S
MANSFIELD      SUNNY     85  55  35 CALM      30.04S
YOUNGSTOWN     MOSUNNY   85  60  42 CALM      30.04S
$$

OHZ042-051>053-060>062-070>072-077>081-271800-
  SOUTHWEST OHIO

CITY           SKY/WX    TMP DP  RH WIND       PRES   REMARKS
CINC-COVINGTON CLOUDY    85  73  67 CALM      30.01F HX  91
CINC-LUNKEN    PTSUNNY   85  76  74 S7        30.00F HX  94
HAMILTON       MOSUNNY   87  69  54 NE3       30.01F HX  91
DAYTON         MOSUNNY   85  68  56 W5        30.03S
WRIGHT-PAT AFB MOSUNNY   86  72  62 NW6       30.01S HX  91
DAYTON GENERAL PTSUNNY   86  69  56 W8        30.01F HX  90
WILMINGTON     MOSUNNY   84  70  62 CALM      30.02S
$$

OHZ036-037-039>041-045>050-054>059-063>069-073>076-082>088-271800-
  CENTRAL AND SOUTHEAST OHIO

CITY           SKY/WX    TMP DP  RH WIND       PRES   REMARKS
COLUMBUS       MOSUNNY   85  66  53 CALM      30.00S
OSU AIRPORT    PTSUNNY   86  65  49 E5        30.01S
BOLTON FIELD   PTSUNNY   84  70  61 CALM      30.02S
RICKENBACK AFB MOSUNNY   87  70  58 W3        30.00S HX  91
NEWARK         MOSUNNY   87  65  47 CALM      30.01R
MARION         SUNNY     86  59  39 VRB5      30.02F
LANCASTER      PTSUNNY   83  72  69 NW3       30.01F
ZANESVILLE     PTSUNNY   87  69  54 W3        30.01S HX  91
NEW PHILLY     MOSUNNY   91  58  32 VRB3      30.01F HX  90
$$




USA.gov is the U.S. government's official web portal to all federal, state and local government web resources and services.